Regional Weather Roundup
Issued by NWS

Home | Current Version | Previous Version | Graphics & Text | Print | Product List | Glossary On
Versions: 1 2 3 4 5 6 7 8 9 10 11 12 13 14 15 16 17 18 19 20 21 22 23 24 25 26 27 28 29 30 31 32 33 34 35 36 37 38 39 40 41 42 43 44 45 46 47 48
000
ASUS45 KBOU 241507
RWRCO

WEATHER ROUNDUP FOR COLORADO
NATIONAL WEATHER SERVICE DENVER/BOULDER CO
800 AM MST SAT JAN 24 2015

NOTE: "FAIR" INDICATES FEW OR NO CLOUDS BELOW 12000 FEET WITH NO
SIGNIFICANT WEATHER AND/OR OBSTRUCTIONS TO VISIBILITY.

COZ001>005-013-030-031-241600-
...NORTHWEST COLORADO...

CITY           SKY/WX    TMP DP  RH WIND       PRES   REMARKS
CRAIG          CLOUDY     4   0  83 W5        30.41F WCI  -5
HAYDEN         CLOUDY    12   1  62 E12       30.39S WCI  -2
MEEKER         CLOUDY     9   3  77 CALM      30.42S
MOUNT WERNER   NOT AVBL
STEAMBOAT SPGS CLOUDY     5   0  81 CALM      30.41S
WALDEN         CLOUDY    12   5  73 SE9       30.31S WCI   0
$$

COZ006>008-011-241600-
...WEST CENTRAL VALLEYS...

CITY           SKY/WX    TMP DP  RH WIND       PRES   REMARKS
GRAND JUNCTION MOCLDY    22  13  68 SE9       30.42S WCI  12
MONTROSE       PTCLDY    19   9  65 CALM      30.46R
EAGLE          CLOUDY     7   5  92 CALM      30.48R
RIFLE          MOCLDY    16  10  77 SE5       30.44F WCI   9
DELTA          PTCLDY    18  13  80 CALM      30.46R
NUCLA          PTCLDY    19  12  73 NW3       30.46R
$$

COZ017>023-064>068-241600-
...SOUTHWEST COLORADO...

CITY           SKY/WX    TMP DP  RH WIND       PRES   REMARKS
DURANGO        CLEAR     17  12  80 N5        30.35F WCI  10
CORTEZ         CLEAR     16  12  84 N3        30.36F
PAGOSA SPRINGS CLEAR     13  12  95 CALM      30.33F
TELLURIDE      PTCLDY    20   6  55 SE6       30.35F WCI  12
WOLF CREEK PAS NOT AVBL
$$

COZ009-010-012-014-032>034-037-058>063-241600-
...CENTRAL COLORADO...

CITY           SKY/WX    TMP DP  RH WIND       PRES   REMARKS
ASPEN          PTCLDY     8   2  76 CALM      30.39R
BUENA VISTA    PTCLDY    20  10  63 NW6       30.28R WCI  13
COPPER MTN     MOCLDY    18   9  68 W18       30.33R WCI   2
BERTHOUD PASS  FAIR       5   1  85 NW26      30.28S WCI -18
COTTONWOOD PAS PTCLDY    32   3  29 CALM      30.27R
GUNNISON       PTCLDY   -11 N/A N/A CALM      30.48R
KREMMLING      CLOUDY    -2  -8  78 CALM      30.46F
LEADVILLE      PTCLDY    13   5  70 N9        30.32R WCI   1
MONARCH PASS   PTCLDY    14   5  67 MISG      30.40F
SALIDA         PTCLDY    28  11  50 N12       30.33F WCI  17
SUNLIGHT       PTCLDY    23   9  54 W3        30.36F
WILKERSON PASS MOCLDY    27  -9  20 NW18G29   30.26R WCI  13
$$

COZ069>075-241600-
...SAN LUIS VALLEY/SANGRE DE CRISTO MOUNTAINS...

CITY           SKY/WX    TMP DP  RH WIND       PRES   REMARKS
ALAMOSA        MOCLDY     4  -1  80 NW5       30.35R WCI  -5
LA VETA PASS   NOT AVBL
SAGUACHE       PTCLDY    18   5  57 NW12      30.32S WCI   5
$$

COZ035-036-038>040-241600-
...NORTHERN COLORADO FRONT RANGE...

CITY           SKY/WX    TMP DP  RH WIND       PRES   REMARKS
DENVER INTL AP MOCLDY    35  16  45 SW17      30.06R WCI  25
DMNS CITY PARK   N/A     35  13  39 S6        30.08R WCI  30
AURORA         MOCLDY    34  15  45 S12       30.09R WCI  25
FRONT RANGE AP MOCLDY    37  18  44 SW13      30.07
ERIE MUNI ARPT CLOUDY    35  18  49 S6        30.06R WCI  30
BOULDER MUN AP CLOUDY    45   9  23 CALM      30.06R
CENTENNIAL     MOCLDY    37  13  37 SW14      30.09S
BROOMFIELD     MOCLDY    46  10  23 W26G33    30.07R
FORT COLLINS   CLOUDY    25  18  74 N3        30.07S
LONGMONT       CLOUDY    28  19  70 CALM      30.06S
$$

COZ041-046-047-076>085-087-088-241600-
...PIKES PEAK/PALMER DIVIDE AND SOUTHERN FOOTHILLS...

CITY           SKY/WX    TMP DP  RH WIND       PRES   REMARKS
COLO. SPRINGS  MOCLDY    34  15  46 N8        30.11R WCI  27
A. F. ACADEMY  PTCLDY    27  10  47 NE6       30.11R WCI  21
ELLICOTT       PTCLDY   N/A N/A N/A NE5       30.10R
FALCON         PTCLDY    31   9  38 CALM      30.12R
FORT CARSON    PTCLDY    29  15  58 NW9       30.10R WCI  20
LIMON          CLEAR     28  20  71 N3        30.09R
MONUMENT HILL  PTCLDY    32   9  37 SW9       30.11R WCI  24
TRINIDAD       CLEAR     29  18  63 SW15      30.12F WCI  18
$$

COZ042>045-048>051-090-091-241600-
...NORTHEAST COLORADO...

CITY           SKY/WX    TMP DP  RH WIND       PRES   REMARKS
GREELEY ARPT   CLOUDY    21  16  79 NW5       30.05S WCI  15
AKRON          PTCLDY    29  23  78 W12       30.04F WCI  19
BURLINGTON     CLEAR     33  24  69 W10       30.06F WCI  25
WRAY           PTCLDY    32  27  80 W13       30.04F WCI  22
STERLING       PTCLDY    28  27  93 SW10      30.04S WCI  19
HOLYOKE        PTCLDY    32  27  80 W9        30.03F WCI  24
FORT MORGAN    PTCLDY    26  21  81 W9        30.06S WCI  17
$$

COZ086-089-092>099-241600-
...SOUTHEAST COLORADO...

CITY           SKY/WX    TMP DP  RH WIND       PRES   REMARKS
PUEBLO         CLEAR     23  19  85 N6        30.11F WCI  16
LA JUNTA       PTCLDY    28  22  78 SW10      30.09F WCI  19
LAMAR          CLEAR     28  25  88 SW7       30.09F WCI  21
SPRINGFIELD      N/A     30  22  72 W5        30.12F WCI  25
$$



USA.gov is the U.S. government's official web portal to all federal, state and local government web resources and services.